Location: La Sioule Rivi�re
(46.3664°N, 3.3197°E)
Time: 13:08:53
(UTC+00:00)

Cosmos 2228 - Pass Details

Date: 29 October 2020
Orbit: 590 x 617 km, 82.5° (Epoch: 23 November)

Event Time Altitude Azimuth Distance (km) Brightness Sun altitude
Rises 17:22:07 0° 194° (SSW) 2,813 6.8 -8.5°
Reaches altitude 10° 17:24:19 10° 197° (SSW) 1,920 6.0 -8.9°
Maximum altitude 17:28:32 68° 280° (W) 645 3.4 -9.6°
Drops below altitude 10° 17:32:49 10° 4° (N) 1,949 5.5 -10.3°
Sets 17:35:04 0° 7° (N) 2,861 6.3 -10.7°
